SV1IW Athens current weather conditions

sailwx.info

Wind from 341 at 2 knots gusting 4

Air temperature 14.4° C
Dewpoint 3.6° C

Last reported at 2014-Nov-21 22:30 UTC.
Time now 2014-Nov-23 13:37 UTC

Location: N 37°58' E 023°43'.
View on Google Maps.

See reports from other nearby stations

  
Tides and Currents Weather Stations Pressure Air Temp Water Temp Dewpoint Dewpoint Depression Visibility Wind Speed Wind Dir Waves Ship Positions
date/time (UTC)wind fromknots sea level pressurealtimeterstation pressurevisibilityair tempwater tempwave heightnotes
2014-Nov-21 22:30 341 2 gusting 4 14.4
2014-Nov-21 22:00 354 14.4
2014-Nov-21 21:30 14.4
2014-Nov-21 21:00 016 0 gusting 6 14.4
2014-Nov-21 20:30 332 4 gusting 6 14.4
2014-Nov-21 20:00 353 2 gusting 5 14.4
2014-Nov-21 19:30 347 2 gusting 8 14.4
2014-Nov-21 19:00 350 3 gusting 7 14.4
2014-Nov-21 18:30 339 5 gusting 11 14.4
2014-Nov-21 18:00 023 6 gusting 12 14.4
2014-Nov-21 17:30 345 5 gusting 11 15.0
2014-Nov-21 17:00 352 6 gusting 13 15.0
2014-Nov-21 16:30 340 6 gusting 11 15.0
2014-Nov-21 16:00 355 6 gusting 10 15.6
2014-Nov-21 15:30 343 2 gusting 7 15.6
2014-Nov-21 15:00 010 2 gusting 6 16.1
2014-Nov-21 14:30 009 2 gusting 7 16.7
2014-Nov-21 14:00 349 2 gusting 7 17.2
2014-Nov-21 13:30 347 2 gusting 6 17.8
2014-Nov-21 13:00 341 3 gusting 6 18.3